Year,Month,Day,Hour,Minute,Value (Times are PST for temperature in C)
2014,07,29,00,00,15.00
2014,07,29,00,01,15.00
2014,07,29,00,02,15.00
2014,07,29,00,03,15.00
2014,07,29,00,04,15.00
2014,07,29,00,05,14.90
2014,07,29,00,06,14.90
2014,07,29,00,07,14.90
2014,07,29,00,08,14.90
2014,07,29,00,09,14.90
2014,07,29,00,10,14.90
2014,07,29,00,11,14.90
2014,07,29,00,12,14.90
2014,07,29,00,13,14.90
2014,07,29,00,14,14.90
2014,07,29,00,15,14.90
2014,07,29,00,16,14.90
2014,07,29,00,17,15.00
2014,07,29,00,18,15.00
2014,07,29,00,19,14.90
2014,07,29,00,20,15.00
2014,07,29,00,21,15.00
2014,07,29,00,22,15.00
2014,07,29,00,23,15.00
2014,07,29,00,24,15.00
2014,07,29,00,25,15.10
2014,07,29,00,26,15.10
2014,07,29,00,27,15.10
2014,07,29,00,28,15.10
2014,07,29,00,29,15.10
2014,07,29,00,30,15.20
2014,07,29,00,31,15.20
2014,07,29,00,32,15.20
2014,07,29,00,33,15.20
2014,07,29,00,34,15.20
2014,07,29,00,35,15.20
2014,07,29,00,36,15.20
2014,07,29,00,37,15.20
2014,07,29,00,38,15.10
2014,07,29,00,39,15.10
2014,07,29,00,40,15.10
2014,07,29,00,41,15.10
2014,07,29,00,42,15.20
2014,07,29,00,43,15.20
2014,07,29,00,44,15.20
2014,07,29,00,45,15.20
2014,07,29,00,46,15.20
2014,07,29,00,47,15.20
2014,07,29,00,48,15.20
2014,07,29,00,49,15.20
2014,07,29,00,50,15.20
2014,07,29,00,51,15.20
2014,07,29,00,52,15.20
2014,07,29,00,53,15.20
2014,07,29,00,54,15.20
2014,07,29,00,55,15.20
2014,07,29,00,56,15.20
2014,07,29,00,57,15.20
2014,07,29,00,58,15.20
2014,07,29,00,59,15.20
2014,07,29,01,00,15.20
2014,07,29,01,01,15.20
2014,07,29,01,02,15.20
2014,07,29,01,03,15.20
2014,07,29,01,04,15.20
2014,07,29,01,05,15.20
2014,07,29,01,06,15.20
2014,07,29,01,07,15.20
2014,07,29,01,08,15.20
2014,07,29,01,09,15.20
2014,07,29,01,10,15.20
2014,07,29,01,11,15.20
2014,07,29,01,12,15.20
2014,07,29,01,13,15.20
2014,07,29,01,14,15.30
2014,07,29,01,15,15.30
2014,07,29,01,16,15.30
2014,07,29,01,17,15.30
2014,07,29,01,18,15.30
2014,07,29,01,19,15.30
2014,07,29,01,20,15.40
2014,07,29,01,21,15.30
2014,07,29,01,22,15.30
2014,07,29,01,23,15.30
2014,07,29,01,24,15.30
2014,07,29,01,25,15.30
2014,07,29,01,26,15.30
2014,07,29,01,27,15.30
2014,07,29,01,28,15.30
2014,07,29,01,29,15.30
2014,07,29,01,30,15.30
2014,07,29,01,31,15.30
2014,07,29,01,32,15.30
2014,07,29,01,33,15.30
2014,07,29,01,34,15.30
2014,07,29,01,35,15.30
2014,07,29,01,36,15.30
2014,07,29,01,37,15.30
2014,07,29,01,38,15.30
2014,07,29,01,39,15.30
2014,07,29,01,40,15.30
2014,07,29,01,41,15.30
2014,07,29,01,42,15.30
2014,07,29,01,43,15.20
2014,07,29,01,44,15.20
2014,07,29,01,45,15.20
2014,07,29,01,46,15.20
2014,07,29,01,47,15.20
2014,07,29,01,48,15.20
2014,07,29,01,49,15.20
2014,07,29,01,50,15.20
2014,07,29,01,51,15.30
2014,07,29,01,52,15.30
2014,07,29,01,53,15.30
2014,07,29,01,54,15.30
2014,07,29,01,55,15.30
2014,07,29,01,56,15.30
2014,07,29,01,57,15.40
2014,07,29,01,58,15.40
2014,07,29,01,59,15.40
2014,07,29,02,00,15.40
2014,07,29,02,01,15.40
2014,07,29,02,02,15.40
2014,07,29,02,03,15.40
2014,07,29,02,04,15.40
2014,07,29,02,05,15.40
2014,07,29,02,06,15.40
2014,07,29,02,07,15.40
2014,07,29,02,08,15.40
2014,07,29,02,09,15.40
2014,07,29,02,10,15.40
2014,07,29,02,11,15.40
2014,07,29,02,12,15.40
2014,07,29,02,13,15.40
2014,07,29,02,14,15.40
2014,07,29,02,15,15.40
2014,07,29,02,16,15.40
2014,07,29,02,17,15.40
2014,07,29,02,18,15.40
2014,07,29,02,19,15.40
2014,07,29,02,20,15.40
2014,07,29,02,21,15.40
2014,07,29,02,22,15.40
2014,07,29,02,23,15.40
2014,07,29,02,24,15.40
2014,07,29,02,25,15.40
2014,07,29,02,26,15.40
2014,07,29,02,27,15.40
2014,07,29,02,28,15.40
2014,07,29,02,29,15.40
2014,07,29,02,30,15.40
2014,07,29,02,31,15.40
2014,07,29,02,32,15.40
2014,07,29,02,33,15.40
2014,07,29,02,34,15.40
2014,07,29,02,35,15.50
2014,07,29,02,36,15.50
2014,07,29,02,37,15.60
2014,07,29,02,38,15.60
2014,07,29,02,39,15.60
2014,07,29,02,40,15.70
2014,07,29,02,41,15.70
2014,07,29,02,42,15.70
2014,07,29,02,43,15.80
2014,07,29,02,44,15.80
2014,07,29,02,45,15.80
2014,07,29,02,46,15.90
2014,07,29,02,47,15.90
2014,07,29,02,48,15.90
2014,07,29,02,49,15.90
2014,07,29,02,50,15.90
2014,07,29,02,51,15.90
2014,07,29,02,52,15.90
2014,07,29,02,53,15.90
2014,07,29,02,54,15.80
2014,07,29,02,55,15.80
2014,07,29,02,56,15.80
2014,07,29,02,57,15.70
2014,07,29,02,58,15.70
2014,07,29,02,59,15.70
2014,07,29,03,00,15.80
2014,07,29,03,01,15.80
2014,07,29,03,02,15.80
2014,07,29,03,03,15.90
2014,07,29,03,04,15.90
2014,07,29,03,05,15.90
2014,07,29,03,06,15.90
2014,07,29,03,07,15.90
2014,07,29,03,08,15.90
2014,07,29,03,09,15.90
2014,07,29,03,10,15.80
2014,07,29,03,11,15.80
2014,07,29,03,12,15.80
2014,07,29,03,13,15.80
2014,07,29,03,14,15.80
2014,07,29,03,15,15.80
2014,07,29,03,16,15.80
2014,07,29,03,17,15.80
2014,07,29,03,18,15.70
2014,07,29,03,19,15.70
2014,07,29,03,20,15.70
2014,07,29,03,21,15.60
2014,07,29,03,22,15.60
2014,07,29,03,23,15.60
2014,07,29,03,24,15.50
2014,07,29,03,25,15.40
2014,07,29,03,26,15.40
2014,07,29,03,27,15.40
2014,07,29,03,28,15.40
2014,07,29,03,29,15.30
2014,07,29,03,30,15.30
2014,07,29,03,31,15.30
2014,07,29,03,32,15.30
2014,07,29,03,33,15.30
2014,07,29,03,34,15.30
2014,07,29,03,35,15.20
2014,07,29,03,36,15.20
2014,07,29,03,37,15.20
2014,07,29,03,38,15.20
2014,07,29,03,39,15.30
2014,07,29,03,40,15.30
2014,07,29,03,41,15.30
2014,07,29,03,42,15.30
2014,07,29,03,43,15.40
2014,07,29,03,44,15.40
2014,07,29,03,45,15.40
2014,07,29,03,46,15.40
2014,07,29,03,47,15.40
2014,07,29,03,48,15.40
2014,07,29,03,49,15.40
2014,07,29,03,50,15.50
2014,07,29,03,51,15.50
2014,07,29,03,52,15.50
2014,07,29,03,53,15.50
2014,07,29,03,54,15.50
2014,07,29,03,55,15.50
2014,07,29,03,56,15.50
2014,07,29,03,57,15.50
2014,07,29,03,58,15.50
2014,07,29,03,59,15.40
2014,07,29,04,00,15.40
2014,07,29,04,01,15.40
2014,07,29,04,02,15.40
2014,07,29,04,03,15.40
2014,07,29,04,04,15.40
2014,07,29,04,05,15.30
2014,07,29,04,06,15.30
2014,07,29,04,07,15.30
2014,07,29,04,08,15.30
2014,07,29,04,09,15.30
2014,07,29,04,10,15.30
2014,07,29,04,11,15.30
2014,07,29,04,12,15.30
2014,07,29,04,13,15.30
2014,07,29,04,14,15.30
2014,07,29,04,15,15.30
2014,07,29,04,16,15.30
2014,07,29,04,17,15.30
2014,07,29,04,18,15.30
2014,07,29,04,19,15.40
2014,07,29,04,20,15.40
2014,07,29,04,21,15.40
2014,07,29,04,22,15.40
2014,07,29,04,23,15.40
2014,07,29,04,24,15.50
2014,07,29,04,25,15.50
2014,07,29,04,26,15.50
2014,07,29,04,27,15.50
2014,07,29,04,28,15.50
2014,07,29,04,29,15.50
2014,07,29,04,30,15.50
2014,07,29,04,31,15.60
2014,07,29,04,32,15.60
2014,07,29,04,33,15.60
2014,07,29,04,34,15.60
2014,07,29,04,35,15.70
2014,07,29,04,36,15.70
2014,07,29,04,37,15.70
2014,07,29,04,38,15.70
2014,07,29,04,39,15.80
2014,07,29,04,40,15.80
2014,07,29,04,41,15.80
2014,07,29,04,42,15.80
2014,07,29,04,43,15.80
2014,07,29,04,44,15.80
2014,07,29,04,45,15.80
2014,07,29,04,46,15.70
2014,07,29,04,47,15.70
2014,07,29,04,48,15.70
2014,07,29,04,49,15.60
2014,07,29,04,50,15.60
2014,07,29,04,51,15.60
2014,07,29,04,52,15.60
2014,07,29,04,53,15.60
2014,07,29,04,54,15.50
2014,07,29,04,55,15.40
2014,07,29,04,56,15.30
2014,07,29,04,57,15.20
2014,07,29,04,58,15.10
2014,07,29,04,59,15.00
2014,07,29,05,00,14.90
2014,07,29,05,01,14.80
2014,07,29,05,02,14.80
2014,07,29,05,03,14.70
2014,07,29,05,04,14.70
2014,07,29,05,05,14.60
2014,07,29,05,06,14.60
2014,07,29,05,07,14.50
2014,07,29,05,08,14.50
2014,07,29,05,09,14.50
2014,07,29,05,10,14.50
2014,07,29,05,11,14.60
2014,07,29,05,12,14.60
2014,07,29,05,13,14.60
2014,07,29,05,14,14.60
2014,07,29,05,15,14.50
2014,07,29,05,16,14.50
2014,07,29,05,17,14.40
2014,07,29,05,18,14.40
2014,07,29,05,19,14.30
2014,07,29,05,20,14.30
2014,07,29,05,21,14.20
2014,07,29,05,22,14.20
2014,07,29,05,23,14.20
2014,07,29,05,24,14.20
2014,07,29,05,25,14.10
2014,07,29,05,26,14.10
2014,07,29,05,27,14.00
2014,07,29,05,28,14.00
2014,07,29,05,29,14.00
2014,07,29,05,30,14.00
2014,07,29,05,31,13.90
2014,07,29,05,32,13.90
2014,07,29,05,33,13.90
2014,07,29,05,34,13.80
2014,07,29,05,35,13.80
2014,07,29,05,36,13.80
2014,07,29,05,37,13.80
2014,07,29,05,38,13.70
2014,07,29,05,39,13.70
2014,07,29,05,40,13.70
2014,07,29,05,41,13.60
2014,07,29,05,42,13.60
2014,07,29,05,43,13.60
2014,07,29,05,44,13.50
2014,07,29,05,45,13.50
2014,07,29,05,46,13.40
2014,07,29,05,47,13.40
2014,07,29,05,48,13.30
2014,07,29,05,49,13.20
2014,07,29,05,50,13.20
2014,07,29,05,51,13.10
2014,07,29,05,52,13.00
2014,07,29,05,53,13.00
2014,07,29,05,54,12.90
2014,07,29,05,55,12.90
2014,07,29,05,56,12.80
2014,07,29,05,57,12.80
2014,07,29,05,58,12.80
2014,07,29,05,59,12.70
2014,07,29,06,00,12.70
2014,07,29,06,01,12.70
2014,07,29,06,02,12.60
2014,07,29,06,03,12.60
2014,07,29,06,04,12.60
2014,07,29,06,05,12.50
2014,07,29,06,06,12.50
2014,07,29,06,07,12.50
2014,07,29,06,08,12.40
2014,07,29,06,09,12.40
2014,07,29,06,10,12.40
2014,07,29,06,11,12.40
2014,07,29,06,12,12.40
2014,07,29,06,13,12.40
2014,07,29,06,14,12.50
2014,07,29,06,15,12.60
2014,07,29,06,16,12.70
2014,07,29,06,17,12.80
2014,07,29,06,18,12.80
2014,07,29,06,19,12.90
2014,07,29,06,20,12.90
2014,07,29,06,21,13.00
2014,07,29,06,22,13.00
2014,07,29,06,23,13.00
2014,07,29,06,24,13.10
2014,07,29,06,25,13.10
2014,07,29,06,26,13.10
2014,07,29,06,27,13.00
2014,07,29,06,28,13.00
2014,07,29,06,29,13.00
2014,07,29,06,30,12.90
2014,07,29,06,31,12.90
2014,07,29,06,32,12.90
2014,07,29,06,33,12.90
2014,07,29,06,34,12.90
2014,07,29,06,35,12.90
2014,07,29,06,36,12.90
2014,07,29,06,37,12.90
2014,07,29,06,38,13.00
2014,07,29,06,39,13.00
2014,07,29,06,40,13.10
2014,07,29,06,41,13.10
2014,07,29,06,42,13.30
2014,07,29,06,43,13.40
2014,07,29,06,44,13.60
2014,07,29,06,45,13.70
2014,07,29,06,46,13.90
2014,07,29,06,47,14.00
2014,07,29,06,48,14.10
2014,07,29,06,49,14.20
2014,07,29,06,50,14.30
2014,07,29,06,51,14.40
2014,07,29,06,52,14.50
2014,07,29,06,53,14.60
2014,07,29,06,54,14.70
2014,07,29,06,55,14.80
2014,07,29,06,56,14.90
2014,07,29,06,57,15.10
2014,07,29,06,58,15.20
2014,07,29,06,59,15.30
2014,07,29,07,00,15.40
2014,07,29,07,01,15.50
2014,07,29,07,02,15.50
2014,07,29,07,03,15.60
2014,07,29,07,04,15.70
2014,07,29,07,05,15.80
2014,07,29,07,06,15.80
2014,07,29,07,07,15.90
2014,07,29,07,08,15.90
2014,07,29,07,09,16.00
2014,07,29,07,10,16.10
2014,07,29,07,11,16.10
2014,07,29,07,12,16.20
2014,07,29,07,13,16.30
2014,07,29,07,14,16.30
2014,07,29,07,15,16.30
2014,07,29,07,16,16.40
2014,07,29,07,17,16.40
2014,07,29,07,18,16.50
2014,07,29,07,19,16.60
2014,07,29,07,20,16.60
2014,07,29,07,21,16.60
2014,07,29,07,22,16.70
2014,07,29,07,23,16.70
2014,07,29,07,24,16.70
2014,07,29,07,25,16.80
2014,07,29,07,26,16.80
2014,07,29,07,27,16.80
2014,07,29,07,28,16.90
2014,07,29,07,29,16.90
2014,07,29,07,30,16.90
2014,07,29,07,31,16.90
2014,07,29,07,32,17.00
2014,07,29,07,33,17.00
2014,07,29,07,34,17.00
2014,07,29,07,35,17.10
2014,07,29,07,36,17.10
2014,07,29,07,37,17.10
2014,07,29,07,38,17.10
2014,07,29,07,39,17.10
2014,07,29,07,40,17.10
2014,07,29,07,41,17.20
2014,07,29,07,42,17.20
2014,07,29,07,43,17.20
2014,07,29,07,44,17.20
2014,07,29,07,45,17.20
2014,07,29,07,46,17.20
2014,07,29,07,47,17.30
2014,07,29,07,48,17.30
2014,07,29,07,49,17.30
2014,07,29,07,50,17.30
2014,07,29,07,51,17.30
2014,07,29,07,52,17.30
2014,07,29,07,53,17.30
2014,07,29,07,54,17.40
2014,07,29,07,55,17.40
2014,07,29,07,56,17.40
2014,07,29,07,57,17.40
2014,07,29,07,58,17.40
2014,07,29,07,59,17.50
2014,07,29,08,00,17.50
2014,07,29,08,01,17.50
2014,07,29,08,02,17.60
2014,07,29,08,03,17.60
2014,07,29,08,04,17.70
2014,07,29,08,05,17.70
2014,07,29,08,06,17.70
2014,07,29,08,07,17.80
2014,07,29,08,08,17.80
2014,07,29,08,09,17.80
2014,07,29,08,10,17.80
2014,07,29,08,11,17.90
2014,07,29,08,12,17.90
2014,07,29,08,13,18.00
2014,07,29,08,14,18.00
2014,07,29,08,15,18.10
2014,07,29,08,16,18.10
2014,07,29,08,17,18.10
2014,07,29,08,18,18.10
2014,07,29,08,19,18.20
2014,07,29,08,20,18.20
2014,07,29,08,21,18.20
2014,07,29,08,22,18.20
2014,07,29,08,23,18.30
2014,07,29,08,24,18.30
2014,07,29,08,25,18.30
2014,07,29,08,26,18.40
2014,07,29,08,27,18.40
2014,07,29,08,28,18.50
2014,07,29,08,29,18.50
2014,07,29,08,30,18.50
2014,07,29,08,31,18.60
2014,07,29,08,32,18.60
2014,07,29,08,33,18.60
2014,07,29,08,34,18.70
2014,07,29,08,35,18.70
2014,07,29,08,36,18.70
2014,07,29,08,37,18.70
2014,07,29,08,38,18.70
2014,07,29,08,39,18.80
2014,07,29,08,40,18.80
2014,07,29,08,41,18.80
2014,07,29,08,42,18.90
2014,07,29,08,43,18.90
2014,07,29,08,44,18.90
2014,07,29,08,45,19.00
2014,07,29,08,46,19.10
2014,07,29,08,47,19.10
2014,07,29,08,48,19.20
2014,07,29,08,49,19.20
2014,07,29,08,50,19.30
2014,07,29,08,51,19.30
2014,07,29,08,52,19.30
2014,07,29,08,53,19.30
2014,07,29,08,54,19.30
2014,07,29,08,55,19.40
2014,07,29,08,56,19.40
2014,07,29,08,57,19.40
2014,07,29,08,58,19.50
2014,07,29,08,59,19.50
2014,07,29,09,00,19.50
2014,07,29,09,01,19.50
2014,07,29,09,02,19.50
2014,07,29,09,03,19.60
2014,07,29,09,04,19.60
2014,07,29,09,05,19.60
2014,07,29,09,06,19.60
2014,07,29,09,07,19.60
2014,07,29,09,08,19.60
2014,07,29,09,09,19.70
2014,07,29,09,10,19.70
2014,07,29,09,11,19.70
2014,07,29,09,12,19.70
2014,07,29,09,13,19.70
2014,07,29,09,14,19.70
2014,07,29,09,15,19.80
2014,07,29,09,16,19.80
2014,07,29,09,17,19.70
2014,07,29,09,18,19.70
2014,07,29,09,19,19.70
2014,07,29,09,20,19.70
2014,07,29,09,21,19.70
2014,07,29,09,22,19.70
2014,07,29,09,23,19.70
2014,07,29,09,24,19.70
2014,07,29,09,25,19.70
2014,07,29,09,26,19.70
2014,07,29,09,27,19.70
2014,07,29,09,28,19.70
2014,07,29,09,29,19.70
2014,07,29,09,30,19.80
2014,07,29,09,31,19.90
2014,07,29,09,32,19.90
2014,07,29,09,33,20.00
2014,07,29,09,34,20.10
2014,07,29,09,35,20.10
2014,07,29,09,36,20.20
2014,07,29,09,37,20.20
2014,07,29,09,38,20.20
2014,07,29,09,39,20.20
2014,07,29,09,40,20.20
2014,07,29,09,41,20.30
2014,07,29,09,42,20.30
2014,07,29,09,43,20.30
2014,07,29,09,44,20.40
2014,07,29,09,45,20.40
2014,07,29,09,46,20.50
2014,07,29,09,47,20.50
2014,07,29,09,48,20.60
2014,07,29,09,49,20.60
2014,07,29,09,50,20.60
2014,07,29,09,51,20.70
2014,07,29,09,52,20.70
2014,07,29,09,53,20.70
2014,07,29,09,54,20.70
2014,07,29,09,55,20.70
2014,07,29,09,56,20.70
2014,07,29,09,57,20.80
2014,07,29,09,58,20.80
2014,07,29,09,59,20.90
2014,07,29,10,00,21.00
2014,07,29,10,01,21.00
2014,07,29,10,02,21.00
2014,07,29,10,03,21.00
2014,07,29,10,04,21.10
2014,07,29,10,05,21.10
2014,07,29,10,06,21.20
2014,07,29,10,07,21.20
2014,07,29,10,08,21.30
2014,07,29,10,09,21.30
2014,07,29,10,10,21.40
2014,07,29,10,11,21.50
2014,07,29,10,12,21.50
2014,07,29,10,13,21.60
2014,07,29,10,14,21.60
2014,07,29,10,15,21.60
2014,07,29,10,16,21.60
2014,07,29,10,17,21.60
2014,07,29,10,18,21.60
2014,07,29,10,19,21.60
2014,07,29,10,20,21.50
2014,07,29,10,21,21.50
2014,07,29,10,22,21.50
2014,07,29,10,23,21.40
2014,07,29,10,24,21.40
2014,07,29,10,25,21.40
2014,07,29,10,26,21.40
2014,07,29,10,27,21.40
2014,07,29,10,28,21.40
2014,07,29,10,29,21.50
2014,07,29,10,30,21.50
2014,07,29,10,31,21.60
2014,07,29,10,32,21.60
2014,07,29,10,33,21.70
2014,07,29,10,34,21.70
2014,07,29,10,35,21.80
2014,07,29,10,36,21.80
2014,07,29,10,37,21.80
2014,07,29,10,38,21.80
2014,07,29,10,39,21.90
2014,07,29,10,40,21.90
2014,07,29,10,41,21.90
2014,07,29,10,42,21.90
2014,07,29,10,43,22.00
2014,07,29,10,44,22.10
2014,07,29,10,45,22.10
2014,07,29,10,46,22.20
2014,07,29,10,47,22.30
2014,07,29,10,48,22.30
2014,07,29,10,49,22.40
2014,07,29,10,50,22.50
2014,07,29,10,51,22.60
2014,07,29,10,52,22.60
2014,07,29,10,53,22.70
2014,07,29,10,54,22.70
2014,07,29,10,55,22.80
2014,07,29,10,56,22.80
2014,07,29,10,57,22.80
2014,07,29,10,58,22.90
2014,07,29,10,59,22.90
2014,07,29,11,00,23.00
2014,07,29,11,01,23.00
2014,07,29,11,02,23.10
2014,07,29,11,03,23.20
2014,07,29,11,04,23.30
2014,07,29,11,05,23.40
2014,07,29,11,06,23.50
2014,07,29,11,07,23.50
2014,07,29,11,08,23.50
2014,07,29,11,09,23.50
2014,07,29,11,10,23.50
2014,07,29,11,11,23.40
2014,07,29,11,12,23.40
2014,07,29,11,13,23.30
2014,07,29,11,14,23.30
2014,07,29,11,15,23.30
2014,07,29,11,16,23.30
2014,07,29,11,17,23.30
2014,07,29,11,18,23.20
2014,07,29,11,19,23.20
2014,07,29,11,20,23.10
2014,07,29,11,21,23.00
2014,07,29,11,22,22.90
2014,07,29,11,23,22.90
2014,07,29,11,24,22.90
2014,07,29,11,25,22.90
2014,07,29,11,26,22.90
2014,07,29,11,27,23.00
2014,07,29,11,28,23.10
2014,07,29,11,29,23.10
2014,07,29,11,30,23.20
2014,07,29,11,31,23.20
2014,07,29,11,32,23.30
2014,07,29,11,33,23.30
2014,07,29,11,34,23.30
2014,07,29,11,35,23.30
2014,07,29,11,36,23.30
2014,07,29,11,37,23.30
2014,07,29,11,38,23.30
2014,07,29,11,39,23.30
2014,07,29,11,40,23.30
2014,07,29,11,41,23.30
2014,07,29,11,42,23.40
2014,07,29,11,43,23.40
2014,07,29,11,44,23.50
2014,07,29,11,45,23.50
2014,07,29,11,46,23.60
2014,07,29,11,47,23.60
2014,07,29,11,48,23.70
2014,07,29,11,49,23.80
2014,07,29,11,50,23.80
2014,07,29,11,51,23.80
2014,07,29,11,52,23.80
2014,07,29,11,53,23.80
2014,07,29,11,54,23.80
2014,07,29,11,55,23.90
2014,07,29,11,56,23.90
2014,07,29,11,57,24.00
2014,07,29,11,58,24.00
2014,07,29,11,59,24.00
2014,07,29,12,00,24.10
2014,07,29,12,01,24.20
2014,07,29,12,02,24.30
2014,07,29,12,03,24.40
2014,07,29,12,04,24.40
2014,07,29,12,05,24.50
2014,07,29,12,06,24.40
2014,07,29,12,07,24.40
2014,07,29,12,08,24.40
2014,07,29,12,09,24.30
2014,07,29,12,10,24.30
2014,07,29,12,11,24.40
2014,07,29,12,12,24.40
2014,07,29,12,13,24.50
2014,07,29,12,14,24.60
2014,07,29,12,15,24.50
2014,07,29,12,16,24.50
2014,07,29,12,17,24.50
2014,07,29,12,18,24.40
2014,07,29,12,19,24.30
2014,07,29,12,20,24.20
2014,07,29,12,21,24.20
2014,07,29,12,22,24.10
2014,07,29,12,23,24.10
2014,07,29,12,24,24.00
2014,07,29,12,25,24.00
2014,07,29,12,26,24.00
2014,07,29,12,27,24.10
2014,07,29,12,28,24.10
2014,07,29,12,29,24.10
2014,07,29,12,30,24.00
2014,07,29,12,31,24.00
2014,07,29,12,32,24.00
2014,07,29,12,33,24.10
2014,07,29,12,34,24.10
2014,07,29,12,35,24.10
2014,07,29,12,36,24.10
2014,07,29,12,37,24.10
2014,07,29,12,38,24.10
2014,07,29,12,39,24.10
2014,07,29,12,40,24.20
2014,07,29,12,41,24.20
2014,07,29,12,42,24.20
2014,07,29,12,43,24.20
2014,07,29,12,44,24.20
2014,07,29,12,45,24.20
2014,07,29,12,46,24.20
2014,07,29,12,47,24.20
2014,07,29,12,48,24.20
2014,07,29,12,49,24.30
2014,07,29,12,50,24.30
2014,07,29,12,51,24.30
2014,07,29,12,52,24.30
2014,07,29,12,53,24.30
2014,07,29,12,54,24.30
2014,07,29,12,55,24.40
2014,07,29,12,56,24.40
2014,07,29,12,57,24.40
2014,07,29,12,58,24.40
2014,07,29,12,59,24.40
2014,07,29,13,00,24.40
2014,07,29,13,01,24.40
2014,07,29,13,02,24.40
2014,07,29,13,03,24.50
2014,07,29,13,04,24.50
2014,07,29,13,05,24.60
2014,07,29,13,06,24.70
2014,07,29,13,07,24.80
2014,07,29,13,08,24.90
2014,07,29,13,09,25.00
2014,07,29,13,10,25.10
2014,07,29,13,11,25.10
2014,07,29,13,12,25.10
2014,07,29,13,13,25.10
2014,07,29,13,14,25.10
2014,07,29,13,15,25.20
2014,07,29,13,16,25.20
2014,07,29,13,17,25.20
2014,07,29,13,18,25.30
2014,07,29,13,19,25.20
2014,07,29,13,20,25.20
2014,07,29,13,21,25.20
2014,07,29,13,22,25.20
2014,07,29,13,23,25.20
2014,07,29,13,24,25.20
2014,07,29,13,25,25.20
2014,07,29,13,26,25.20
2014,07,29,13,27,25.30
2014,07,29,13,28,25.40
2014,07,29,13,29,25.50
2014,07,29,13,30,25.50
2014,07,29,13,31,25.50
2014,07,29,13,32,25.40
2014,07,29,13,33,25.50
2014,07,29,13,34,25.50
2014,07,29,13,35,25.50
2014,07,29,13,36,25.50
2014,07,29,13,37,25.40
2014,07,29,13,38,25.50
2014,07,29,13,39,25.50
2014,07,29,13,40,25.60
2014,07,29,13,41,25.60
2014,07,29,13,42,25.60
2014,07,29,13,43,25.50
2014,07,29,13,44,25.50
2014,07,29,13,45,25.40
2014,07,29,13,46,25.40
2014,07,29,13,47,25.30
2014,07,29,13,48,25.40
2014,07,29,13,49,25.40
2014,07,29,13,50,25.40
2014,07,29,13,51,25.50
2014,07,29,13,52,25.50
2014,07,29,13,53,25.50
2014,07,29,13,54,25.50
2014,07,29,13,55,25.60
2014,07,29,13,56,25.60
2014,07,29,13,57,25.70
2014,07,29,13,58,25.80
2014,07,29,13,59,25.80
2014,07,29,14,00,25.90
2014,07,29,14,01,25.90
2014,07,29,14,02,25.80
2014,07,29,14,03,25.90
2014,07,29,14,04,25.90
2014,07,29,14,05,25.80
2014,07,29,14,06,25.80
2014,07,29,14,07,25.80
2014,07,29,14,08,25.80
2014,07,29,14,09,25.80
2014,07,29,14,10,25.80
2014,07,29,14,11,25.80
2014,07,29,14,12,25.80
2014,07,29,14,13,25.90
2014,07,29,14,14,26.00
2014,07,29,14,15,26.10
2014,07,29,14,16,26.20
2014,07,29,14,17,26.20
2014,07,29,14,18,26.30
2014,07,29,14,19,26.30
2014,07,29,14,20,26.30
2014,07,29,14,21,26.30
2014,07,29,14,22,26.30
2014,07,29,14,23,26.20
2014,07,29,14,24,26.20
2014,07,29,14,25,26.10
2014,07,29,14,26,26.10
2014,07,29,14,27,26.10
2014,07,29,14,28,26.10
2014,07,29,14,29,26.10
2014,07,29,14,30,26.10
2014,07,29,14,31,26.10
2014,07,29,14,32,26.10
2014,07,29,14,33,26.00
2014,07,29,14,34,26.00
2014,07,29,14,35,26.00
2014,07,29,14,36,26.10
2014,07,29,14,37,26.10
2014,07,29,14,38,26.10
2014,07,29,14,39,26.10
2014,07,29,14,40,26.00
2014,07,29,14,41,26.00
2014,07,29,14,42,25.90
2014,07,29,14,43,25.90
2014,07,29,14,44,26.00
2014,07,29,14,45,26.00
2014,07,29,14,46,26.10
2014,07,29,14,47,26.10
2014,07,29,14,48,26.10
2014,07,29,14,49,26.10
2014,07,29,14,50,26.10
2014,07,29,14,51,26.10
2014,07,29,14,52,26.10
2014,07,29,14,53,26.10
2014,07,29,14,54,26.10
2014,07,29,14,55,26.10
2014,07,29,14,56,26.10
2014,07,29,14,57,26.10
2014,07,29,14,58,26.10
2014,07,29,14,59,26.10
2014,07,29,15,00,26.00
2014,07,29,15,01,26.00
2014,07,29,15,02,25.90
2014,07,29,15,03,25.90
2014,07,29,15,04,25.80
2014,07,29,15,05,25.80
2014,07,29,15,06,25.80
2014,07,29,15,07,25.80
2014,07,29,15,08,25.80
2014,07,29,15,09,25.70
2014,07,29,15,10,25.70
2014,07,29,15,11,25.70
2014,07,29,15,12,25.70
2014,07,29,15,13,25.70
2014,07,29,15,14,25.60
2014,07,29,15,15,25.60
2014,07,29,15,16,25.60
2014,07,29,15,17,25.60
2014,07,29,15,18,25.50
2014,07,29,15,19,25.50
2014,07,29,15,20,25.40
2014,07,29,15,21,25.40
2014,07,29,15,22,25.50
2014,07,29,15,23,25.50
2014,07,29,15,24,25.50
2014,07,29,15,25,25.50
2014,07,29,15,26,25.50
2014,07,29,15,27,25.40
2014,07,29,15,28,25.30
2014,07,29,15,29,25.30
2014,07,29,15,30,25.30
2014,07,29,15,31,25.20
2014,07,29,15,32,25.10
2014,07,29,15,33,25.10
2014,07,29,15,34,25.10
2014,07,29,15,35,25.00
2014,07,29,15,36,25.00
2014,07,29,15,37,25.00
2014,07,29,15,38,25.00
2014,07,29,15,39,25.00
2014,07,29,15,40,25.00
2014,07,29,15,41,24.90
2014,07,29,15,42,24.90
2014,07,29,15,43,25.00
2014,07,29,15,44,25.00
2014,07,29,15,45,25.00
2014,07,29,15,46,24.90
2014,07,29,15,47,24.90
2014,07,29,15,48,25.00
2014,07,29,15,49,25.00
2014,07,29,15,50,25.10
2014,07,29,15,51,25.10
2014,07,29,15,52,25.10
2014,07,29,15,53,25.20
2014,07,29,15,54,25.20
2014,07,29,15,55,25.20
2014,07,29,15,56,25.20
2014,07,29,15,57,25.20
2014,07,29,15,58,25.20
2014,07,29,15,59,25.20
2014,07,29,16,00,25.20
2014,07,29,16,01,25.20
2014,07,29,16,02,25.20
2014,07,29,16,03,25.20
2014,07,29,16,04,25.20
2014,07,29,16,05,25.20
2014,07,29,16,06,25.20
2014,07,29,16,07,25.20
2014,07,29,16,08,25.20
2014,07,29,16,09,25.20
2014,07,29,16,10,25.20
2014,07,29,16,11,25.30
2014,07,29,16,12,25.30
2014,07,29,16,13,25.40
2014,07,29,16,14,25.40
2014,07,29,16,15,25.40
2014,07,29,16,16,25.50
2014,07,29,16,17,25.50
2014,07,29,16,18,25.50
2014,07,29,16,19,25.50
2014,07,29,16,20,25.40
2014,07,29,16,21,25.40
2014,07,29,16,22,25.40
2014,07,29,16,23,25.40
2014,07,29,16,24,25.30
2014,07,29,16,25,25.40
2014,07,29,16,26,25.30
2014,07,29,16,27,25.30
2014,07,29,16,28,25.30
2014,07,29,16,29,25.20
2014,07,29,16,30,25.20
2014,07,29,16,31,25.10
2014,07,29,16,32,25.10
2014,07,29,16,33,25.10
2014,07,29,16,34,25.10
2014,07,29,16,35,25.10
2014,07,29,16,36,25.10
2014,07,29,16,37,25.00
2014,07,29,16,38,24.90
2014,07,29,16,39,24.90
2014,07,29,16,40,24.90
2014,07,29,16,41,24.90
2014,07,29,16,42,24.90
2014,07,29,16,43,24.80
2014,07,29,16,44,24.80
2014,07,29,16,45,24.80
2014,07,29,16,46,24.80
2014,07,29,16,47,24.80
2014,07,29,16,48,24.70
2014,07,29,16,49,24.60
2014,07,29,16,50,24.60
2014,07,29,16,51,24.50
2014,07,29,16,52,24.40
2014,07,29,16,53,24.30
2014,07,29,16,54,24.20
2014,07,29,16,55,24.10
2014,07,29,16,56,24.10
2014,07,29,16,57,24.00
2014,07,29,16,58,24.00
2014,07,29,16,59,23.90
2014,07,29,17,00,23.90
2014,07,29,17,01,23.80
2014,07,29,17,02,23.80
2014,07,29,17,03,23.80
2014,07,29,17,04,23.80
2014,07,29,17,05,23.80
2014,07,29,17,06,23.70
2014,07,29,17,07,23.70
2014,07,29,17,08,23.70
2014,07,29,17,09,23.60
2014,07,29,17,10,23.60
2014,07,29,17,11,23.60
2014,07,29,17,12,23.60
2014,07,29,17,13,23.60
2014,07,29,17,14,23.60
2014,07,29,17,15,23.50
2014,07,29,17,16,23.50
2014,07,29,17,17,23.50
2014,07,29,17,18,23.50
2014,07,29,17,19,23.50